Tracking 30995 objects as of 5-Jul-2025
HD Live streaming from Space Station
objects crossing your sky now

OBJECT B

Track OBJECT B now!
10-day predictions


NORAD ID: 56158
Int'l Code: 2023-048B
Perigee: 872.1 km
Apogee: 1,152.0 km
Inclination: 63.4 °
Period: 105.2 minutes
Semi major axis: 7383 km
RCS: Unknown
Launch date: March 31, 2023
Source: People's Republic of China (PRC)
Launch site: Jiuquan Satellite Launch Center, China (JSC)
Your satellite tracking list
Your tracking list is empty




NASA's NSSDC Master Catalog

Two Line Element Set (TLE):
1 56158U 23048B   25186.53540163 -.00000045  00000-0  52405-4 0  9991
2 56158  63.4052 181.9545 0189574  28.1929 332.9216 13.68507188113205
Source of the keplerian elements: AFSPC